Crescent City, CA

12:31 AM PDT on July 27, 2017 (GMT -0700)
McNamara

Weather History for KCEC - November, 2013

Change the Weather History Date:

Friday, November 22, 2013

  Actual Average Record
Temperature  
Mean Temperature 56 °F 49 °F  
Max Temperature 70 °F 55 °F 70 °F (2013)
Min Temperature 42 °F 43 °F 28 °F (2003)
Degree Days  
Heating Degree Days 9 16  
Month to date heating degree days 329 320  
Since 1 July heating degree days 1481 1484  
Cooling Degree Days 0 0  
Month to date cooling degree days 0 0  
Year to date cooling degree days 4 0  
Growing Degree Days 6 (Base 50)    
Moisture  
Dew Point 20 °F    
Average Humidity 29    
Maximum Humidity 45    
Minimum Humidity 12    
Precipitation  
Precipitation 0.00 in 0.32 in 5.00 in (1953)
Month to date precipitation 1.97 7.02  
Year to date precipitation 27.06 50.05  
Since 1 July precipitation 7.13  
Snow  
Snow 0.00 in - - ()
Month to date snowfall 0.0  
Since 1 July snowfall 0.0  
Since 1 September snowfall 0.0  
Snow Depth 0.00 in    
Sea Level Pressure  
Sea Level Pressure 30.20 in    
Wind  
Wind Speed 9 mph (NNE)    
Max Wind Speed 18 mph    
Max Gust Speed 26 mph    
Visibility 10 miles    
Events      
T = Trace of Precipitation, MM = Missing Value Source: NWS Daily Summary

Daily Weather History Graph

Daily Weather History Graph

Search for Another Location

Airport or City:

Trip Planner

Search our weather history database for the weather conditions in past years. The results will help you decide how hot, cold, wet, or windy it might be!

Date:

Astronomy

Nov. 22, 2013 Rise Set
Actual Time 7:15 AM PST 4:50 PM PST
Civil Twilight 6:44 AM PST 5:21 PM PST
Nautical Twilight 6:10 AM PST 5:55 PM PST
Astronomical Twilight 5:37 AM PST 6:28 PM PST
Moon 9:29 PM PST (11/22) 11:00 AM PST (11/22)
Length of Visible Light 10h 36m
Length of Day
9h 35m
Waning Gibbous, 77% of the Moon is Illuminated
Nov 22
Waning Gibbous
Nov 25
Last Quarter
Dec 2
New
Dec 9
First Quarter
Dec 17
Full

Hourly Weather History & Observations

Time (PST) Temp. Windchill Dew Point Humidity Pressure Visibility Wind Dir Wind Speed Gust Speed Precip Events Conditions
12:56 AM 48.9 °F - 18.0 °F 29% 30.28 in 10.0 mi NE 9.2 mph - N/A   Clear
1:56 AM 45.0 °F 43.5 °F 25.0 °F 46% 30.28 in 9.0 mi NNE 3.5 mph - N/A   Clear
2:56 AM 48.9 °F - 15.1 °F 26% 30.28 in 10.0 mi NNE 9.2 mph - N/A   Clear
3:56 AM 42.1 °F 37.7 °F 21.0 °F 43% 30.27 in 10.0 mi NE 6.9 mph - N/A   Clear
4:56 AM 46.0 °F 43.1 °F 18.0 °F 33% 30.26 in 10.0 mi North 5.8 mph - N/A   Clear
5:56 AM 43.0 °F 37.7 °F 19.0 °F 38% 30.26 in 10.0 mi NNE 9.2 mph - N/A   Clear
6:56 AM 46.0 °F 43.9 °F 15.1 °F 29% 30.26 in 10.0 mi NE 4.6 mph - N/A   Clear
7:56 AM 46.0 °F 41.9 °F 24.1 °F 42% 30.27 in 6.0 mi NNW 8.1 mph - N/A   Haze
8:56 AM 55.0 °F - 18.0 °F 23% 30.26 in 10.0 mi NNE 9.2 mph - N/A   Clear
9:56 AM 60.1 °F - 19.0 °F 20% 30.25 in 10.0 mi NE 11.5 mph 16.1 mph N/A   Clear
10:56 AM 66.0 °F - 19.0 °F 17% 30.24 in 10.0 mi NNE 11.5 mph - N/A   Clear
11:53 AM 69.8 °F - 15.8 °F 13% 30.20 in 10.0 mi NE 11.5 mph - N/A   Partly Cloudy
11:56 AM 69.1 °F - 16.0 °F 13% 30.20 in 10.0 mi NE 13.8 mph - N/A   Partly Cloudy
12:56 PM 70.0 °F - 17.1 °F 13% 30.19 in 10.0 mi North 13.8 mph 23.0 mph N/A   Clear
1:56 PM 69.1 °F - 23.0 °F 18% 30.16 in 10.0 mi North 11.5 mph 18.4 mph N/A   Clear
2:56 PM 68.0 °F - 30.9 °F 25% 30.14 in 10.0 mi NNW 9.2 mph - N/A   Clear
3:56 PM 68.0 °F - 23.0 °F 18% 30.15 in 10.0 mi North 8.1 mph - N/A   Clear
4:56 PM 62.1 °F - 21.9 °F 21% 30.15 in 10.0 mi NE 4.6 mph - N/A   Clear
5:56 PM 55.0 °F - 24.1 °F 30% 30.14 in 10.0 mi NE 8.1 mph - N/A   Clear
6:56 PM 60.1 °F - 18.0 °F 20% 30.15 in 10.0 mi ENE 11.5 mph - N/A   Clear
7:56 PM 55.9 °F - 19.0 °F 24% 30.14 in 10.0 mi NNE 5.8 mph - N/A   Clear
8:56 PM 55.0 °F - 19.9 °F 25% 30.14 in 10.0 mi North 4.6 mph - N/A   Clear
9:56 PM 55.9 °F - 19.0 °F 24% 30.12 in 10.0 mi NE 10.4 mph - N/A   Clear
10:56 PM 57.9 °F - 18.0 °F 21% 30.10 in 10.0 mi NE 11.5 mph - N/A   Clear
11:56 PM 57.9 °F - 19.0 °F 22% 30.10 in 10.0 mi ENE 11.5 mph - N/A   Clear